NUSAT-6 (HYPATIA) (46272 NORAD) Tracking and Keplerian Element Data

This shows tracking and keplerian element data for the satellite.

Feedback or suggestion? Click here.




ElementValue
Catalog46272
NameNUSAT-6 (HYPATIA)
Epoch Orbit1348
Epoch Day335.96988411
Epoch Year2020
RAAN47.4658
Inclination97.3985
Eccentricity0.0005682
Argument of Perigee252.8819
Mean Anonmoly107.1798
Mean Motion15.20822573
Decay Rate2.343E-05
L11 46272U 20061A 20335.96988411 .00002343 00000-0 10932-3 0 9999
L22 46272 97.3985 47.4658 0005682 252.8819 107.1798 15.20822573 13488

Live tracking and technical data element details for NUSAT-6 (HYPATIA) (NORAD 46272). NUSAT-6 (HYPATIA) can be tracked NOW for your location showing map with azimuth and elevation plus other details from your city location.

Track the satellite on the map from your city or location and see movement details for azimuth, elevation, latitude, longitude, range, height, and movement on the map or in text.







IsCatalogInMostPopularTable: catalog: 46272, numindb: 26
Update: records affected: 1



GetName: 46272 NUSAT-6 (HYPATIA)

Hit Count: updated at: Tue, 01 Dec 2020 21:05:43 GMT